RH
93 88 68 43 45 45 54 82 43 34 41 25 21 21 65 100 100 100 75 70 62 52 91 59 53 46 42 43 26 19 19 16 16 11 20 16 61 100 100 100 100 100 86 100 72
82 62 61 39 50 56 58 86 65 56 51 38 23 23 36 53 59 63 60 56 50 83 75 93 53 55 54 34 20 21 20 20 15 13 23 39 100 100 100 99 100 100 100 100 53
96 55 52 55 55 74 77 76 100 77 63 42 28 28 28 32 40 46 62 66 97 99 90 95 89 63 48 22 20 21 24 25 15 20 22 32 95 100 100 96 100 100 100 98 62
100 100 65 65 59 67 84 81 99 81 61 47 28 28 30 29 32 82 98 99 100 93 100 100 83 74 36 24 29 21 27 27 16 29 24 26 63 100 100 100 100 74 89 78 86
100 100 98 72 72 71 83 87 98 81 66 48 33 36 32 33 27 58 81 90 76 98 100 100 92 52 32 26 31 24 27 30 19 35 27 36 80 100 100 98 82 87 92 92 98
100 100 100 98 88 85 87 100 100 79 78 65 45 39 40 38 44 40 81 71 68 93 100 100 70 37 28 20 42 34 26 36 24 43 34 60 99 100 97 100 81 70 56 58 65
100 100 100 100 100 100 99 99 100 100 95 74 60 48 45 34 70 37 67 94 88 97 100 99 82 50 29 21 74 37 29 39 32 48 39 38 82 85 82 100 40 54 69 62 71
100 100 95 99 100 100 100 100 100 100 90 92 83 62 52 29 36 72 97 100 97 100 100 100 84 43 28 29 77 46 45 31 39 35 59 42 34 44 52 86 97 78 52 59 66
100 99 100 80 72 98 100 100 100 100 97 100 91 80 63 46 37 80 95 100 100 100 97 100 84 32 29 35 80 77 62 48 35 34 31 71 58 40 60 100 100 97 89 75 59
100 100 100 100 100 97 87 100 100 100 100 100 100 97 80 56 45 40 70 88 94 80 100 100 73 28 35 44 87 76 91 76 48 33 33 35 63 100 50 61 81 72 98 75 66
100 100 100 100 100 92 64 65 93 89 78 100 85 100 100 69 64 48 39 72 85 89 100 100 62 23 26 61 87 69 99 88 59 41 31 33 35 50 100 100 55 98 92 66 80
100 100 100 100 100 100 100 100 80 73 63 65 78 100 100 83 56 62 37 37 61 63 100 100 63 29 27 60 88 69 97 98 82 52 30 31 24 37 70 100 88 84 54 62 55
100 100 100 100 100 100 100 100 100 100 100 100 100 100 100 94 94 80 51 37 36 46 65 85 29 26 37 89 81 68 96 100 93 56 48 32 34 26 40 57 66 96 49 97 59
100 100 100 100 100 100 100 100 100 100 100 100 100 98 100 100 90 91 60 36 38 53 37 37 32 33 30 57 82 95 55 100 93 82 62 33 34 33 27 41 53 67 60 76 65
100 100 100 100 100 100 100 100 100 96 82 100 100 99 100 100 100 78 70 55 34 64 95 100 75 68 56 59 72 97 43 85 100 82 56 36 32 35 27 33 64 78 61 49 56
100 100 100 100 100 100 100 100 100 100 75 77 71 86 81 69 59 50 52 46 42 34 70 100 100 100 100 100 95 99 46 51 100 84 58 40 33 41 31 26 38 70 74 78 56
100 100 100 100 100 100 100 100 100 100 100 100 95 68 66 69 61 44 49 48 43 37 35 100 100 100 100 100 100 100 96 100 100 91 69 48 36 31 38 31 28 42 68 72 56
86 69 87 98 97 96 94 99 80 83 71 86 100 91 74 68 67 63 49 52 47 43 49 47 88 99 100 100 100 100 100 100 100 92 75 66 42 36 50 38 35 28 44 74 87
65 69 63 63 58 67 72 71 85 87 78 55 64 75 82 82 69 59 64 54 50 46 42 47 57 100 100 100 100 100 100 90 96 93 100 81 46 35 52 46 40 32 28 32 75
46 56 59 57 59 56 39 39 56 86 70 68 75 55 66 70 74 73 53 54 58 57 49 48 56 90 100 99 85 98 97 78 79 88 100 88 47 36 66 66 45 35 29 28 28
26 30 44 48 42 35 38 42 49 56 58 57 69 54 60 68 62 71 66 59 71 100 67 45 53 90 97 100 84 99 80 95 82 94 100 90 53 38 81 90 59 40 33 32 28
19 21 27 24 22 22 25 27 35 36 39 46 45 55 53 69 73 65 47 66 81 100 100 71 67 88 100 100 100 100 91 100 100 100 100 87 85 50 45 90 73 64 38 36 35
14 16 18 17 15 16 17 18 20 23 22 27 27 34 45 44 54 54 58 58 68 88 100 100 68 86 92 87 100 100 100 100 100 100 98 93 100 75 47 48 81 84 45 34 32
8 8 10 10 12 12 13 15 15 15 17 18 18 21 23 26 29 40 50 71 62 66 98 100 100 99 94 100 100 100 100 100 100 100 100 100 100 66 64 47 63 93 53 34 32
9 8 10 10 11 11 10 10 12 10 10 12 15 16 20 20 24 29 39 58 99 88 75 100 98 100 100 100 100 100 100 99 100 100 100 100 100 100 100 43 47 100 63 41 40
7 7 9 8 9 9 8 12 14 17 13 11 11 12 14 13 15 19 28 39 76 100 78 82 92 100 100 100 100 100 100 96 98 100 100 100 93 100 94 40 53 100 73 51 46
9 9 8 10 11 10 14 32 25 32 14 15 17 17 8 11 13 14 19 21 35 85 92 70 80 86 89 99 100 99 100 100 100 100 100 100 88 89 66 40 60 100 86 56 44
Wind_Speed
61 61 62 59 58 57 54 49 49 48 45 47 45 40 34 36 34 40 40 42 37 33 31 33 35 37 38 39 46 51 45 45 45 39 30 13 43 39 25 23 31 19 26 20 28
61 60 60 60 60 58 54 51 50 48 44 42 41 40 39 40 39 39 34 33 31 27 30 30 33 36 36 42 44 41 35 37 41 37 23 21 42 33 27 32 36 26 28 30 28
64 62 61 62 61 60 56 53 55 52 43 35 38 38 37 38 37 41 32 26 25 25 31 29 33 33 35 37 47 38 32 38 39 35 11 30 34 17 21 28 39 32 37 33 29
68 65 66 65 60 62 57 54 51 44 41 36 30 36 36 36 29 28 23 22 27 25 29 28 35 32 31 38 42 35 33 39 38 30 6 28 32 19 21 30 28 30 31 36 35
59 70 67 62 59 60 59 55 49 44 42 34 28 32 36 35 29 27 25 22 25 25 29 34 32 26 32 33 40 31 31 38 38 22 16 21 26 20 14 28 37 32 23 26 38
58 60 67 63 62 62 62 60 53 47 46 39 31 30 29 35 27 25 20 21 22 31 36 28 20 25 32 32 38 41 33 36 37 16 12 30 25 8 6 12 17 25 25 27 39
65 61 57 67 65 66 68 65 60 57 48 41 35 32 38 39 26 29 23 27 30 37 36 21 25 29 33 29 37 40 37 31 36 25 17 7 15 8 9 9 11 19 23 28 22
64 65 66 61 63 60 66 68 62 61 49 48 40 36 42 30 33 29 27 34 31 40 42 33 30 30 30 34 36 37 43 33 29 26 19 19 8 9 9 4 19 27 21 30 26
63 68 73 73 71 66 65 67 65 63 59 54 43 41 50 42 40 33 29 33 34 42 44 37 30 30 28 30 36 38 40 45 28 28 26 22 24 15 9 7 14 21 24 20 32
67 64 67 76 78 73 69 67 65 62 57 57 54 51 51 46 39 37 44 36 34 40 44 44 35 29 28 30 35 37 36 42 44 30 25 20 21 16 8 11 17 16 19 18 21
70 66 65 66 66 70 73 75 70 65 59 59 57 59 52 47 46 44 41 44 42 41 43 41 36 32 32 35 35 33 34 38 43 43 26 25 18 18 22 22 17 14 21 19 25
76 77 75 72 70 72 72 73 75 70 67 63 60 62 58 53 54 44 38 48 44 47 42 42 41 39 36 37 39 34 36 34 39 46 35 25 20 13 14 29 29 25 16 22 28
75 81 81 81 83 79 75 76 73 69 63 66 64 60 64 55 57 46 44 45 53 50 49 43 39 35 37 43 41 38 39 32 41 40 45 32 28 24 13 16 20 24 16 23 23
82 81 85 87 86 85 83 82 77 72 70 62 67 58 60 56 49 55 49 46 46 48 51 38 44 44 40 43 38 43 38 31 40 37 41 38 30 30 24 20 12 18 16 20 22
89 89 89 88 88 90 87 89 83 80 73 72 72 61 61 55 58 63 56 52 47 51 53 53 52 49 46 45 33 39 39 41 36 30 37 43 35 28 24 21 17 16 20 18 22
96 94 92 92 97 95 92 90 89 86 74 74 74 74 71 67 64 65 64 58 57 54 54 49 56 54 50 47 45 39 36 40 33 31 35 39 33 29 27 20 16 21 11 23 22
102 102 99 96 101 98 99 99 96 84 74 76 79 78 79 76 72 70 67 63 59 57 55 56 50 47 48 51 46 42 36 40 35 35 37 37 36 35 31 27 25 14 21 19 25
107 110 106 106 107 106 106 103 102 86 86 88 87 89 86 83 78 76 69 64 61 60 54 60 57 54 51 45 44 41 39 40 34 35 38 36 36 41 29 32 30 22 21 21 25
113 113 112 116 117 112 108 111 98 89 89 96 101 96 87 86 84 83 79 74 69 63 65 59 56 59 51 47 46 40 41 42 43 42 37 36 39 40 27 32 33 28 23 19 21
112 114 117 116 115 117 119 113 102 96 96 100 106 101 96 93 89 87 84 77 72 70 71 62 62 57 54 52 47 44 45 44 44 43 33 33 37 42 31 29 31 28 21 20 18
101 104 110 118 116 113 112 110 111 106 107 111 105 106 103 99 95 91 84 78 74 72 74 70 66 60 58 51 47 49 46 47 49 46 32 33 33 35 36 34 35 32 29 28 27
91 92 100 105 101 98 97 100 107 107 110 110 111 111 111 103 101 99 89 82 79 78 76 73 74 66 58 57 51 54 49 50 48 39 31 37 37 42 39 35 39 38 37 32 27
87 88 93 95 89 85 87 89 93 95 98 102 104 108 114 111 111 101 88 81 92 86 78 77 77 71 65 58 53 54 57 57 47 47 40 39 40 34 42 34 39 39 40 34 30
84 83 84 81 82 79 80 80 83 85 89 91 93 99 101 103 106 100 91 86 88 89 86 84 80 74 61 61 64 63 60 57 52 46 37 31 36 36 44 41 38 39 42 37 32
81 72 72 69 68 74 75 72 75 75 80 82 82 85 92 95 98 96 98 96 93 89 88 88 86 78 70 68 68 66 65 61 57 47 40 34 31 43 39 47 38 40 43 42 38
76 67 66 65 67 69 66 64 66 69 75 75 72 82 91 86 83 85 93 98 98 97 92 93 87 84 82 78 77 73 64 62 59 47 39 39 32 45 44 45 40 39 41 42 39
69 61 59 55 61 64 51 50 55 66 70 70 71 79 69 71 84 84 84 86 95 100 96 96 95 93 85 83 83 84 64 58 55 53 44 46 40 41 42 40 40 41 40 40 36
Wind_Direction
256 255 256 254 259 265 270 275 278 281 287 293 299 292 278 268 264 269 272 277 278 284 285 292 300 303 306 311 316 319 324 318 319 329 329 299 152 142 157 172 166 167 175 194 205
254 253 253 255 261 263 268 272 276 280 284 291 297 293 283 275 274 270 276 281 278 275 285 292 297 306 306 313 324 333 328 331 333 341 335 170 158 172 181 193 179 200 189 199 207
251 249 252 256 260 261 266 267 271 275 281 286 300 295 297 286 277 276 278 280 268 283 286 286 295 297 307 320 331 337 332 343 343 350 328 180 188 202 195 197 196 202 208 206 212
250 250 250 252 256 260 262 267 265 266 274 279 289 296 298 289 279 269 263 277 283 283 284 278 294 293 313 332 350 341 345 350 355 355 309 183 189 184 200 215 210 207 210 217 212
259 248 249 248 251 257 260 261 258 261 267 267 276 288 289 284 287 263 265 275 281 279 276 282 292 304 317 337 351 342 351 358 1 352 324 170 172 173 228 226 222 217 214 221 203
253 254 249 246 252 254 258 259 257 253 261 262 266 284 273 278 275 258 278 282 284 278 279 270 314 322 332 338 347 353 352 1 0 4 321 170 166 176 188 268 275 248 236 227 216
251 247 249 249 257 255 256 257 258 259 256 259 262 274 280 281 271 259 275 272 274 274 275 281 306 310 322 330 336 356 355 2 4 342 355 203 191 168 219 262 269 343 267 238 228
248 249 245 250 257 259 254 252 253 259 248 261 263 275 279 281 276 261 274 277 275 276 273 270 303 313 317 326 330 344 355 356 6 350 317 324 190 199 192 298 301 324 324 247 241
252 253 252 250 255 258 254 253 251 256 263 261 258 266 278 281 283 253 266 268 267 275 278 269 294 311 328 323 324 340 348 355 349 2 346 298 304 295 150 194 287 298 302 251 230
252 255 255 253 255 256 253 252 250 253 259 263 263 263 270 273 275 266 263 271 268 273 276 271 284 295 310 318 321 336 350 348 352 347 355 341 291 292 295 207 246 299 277 264 227
246 249 252 253 256 254 251 253 248 249 253 259 263 265 265 268 273 276 272 259 275 273 280 265 276 285 294 299 313 323 341 340 341 348 342 355 330 291 256 268 278 283 266 258 226
247 245 243 242 247 252 253 254 253 250 255 256 258 262 263 267 272 264 263 264 267 275 271 267 275 281 285 298 303 310 330 335 336 342 341 350 354 322 270 259 277 287 234 246 228
249 248 247 246 245 246 246 250 249 249 249 257 255 256 257 261 259 259 262 268 263 268 268 267 273 277 289 297 295 307 323 320 327 341 345 337 351 352 304 282 271 275 261 228 235
247 248 247 246 246 247 250 251 248 248 246 247 251 252 257 258 262 265 257 260 270 258 260 270 268 280 283 289 298 297 316 306 321 336 342 339 337 348 346 303 278 270 271 243 244
245 245 245 245 246 248 249 250 250 249 246 246 252 249 251 251 252 262 260 264 265 257 258 262 271 272 278 288 295 290 308 309 321 338 347 342 324 338 344 340 300 290 279 265 241
244 244 246 246 246 247 246 248 249 249 250 248 247 253 257 260 259 262 263 261 261 266 257 265 262 264 269 281 283 288 293 305 314 337 343 342 330 330 339 347 317 275 278 272 247
243 243 244 246 247 246 246 247 247 247 248 248 248 247 253 258 260 260 258 256 258 262 260 252 261 269 274 276 278 279 288 295 304 321 334 337 343 320 334 342 350 296 279 255 257
246 244 244 247 247 248 249 248 249 251 253 253 253 252 252 254 257 259 256 255 256 257 258 252 255 259 263 274 279 282 284 287 300 317 320 333 337 336 327 343 342 344 277 271 265
246 247 247 248 247 248 248 250 252 252 251 253 254 250 251 251 251 253 255 253 252 253 255 259 251 254 258 265 269 273 279 283 290 302 305 323 334 327 328 337 342 331 336 288 264
250 249 248 248 248 250 251 252 251 247 247 248 252 252 250 247 250 251 250 248 247 248 253 255 248 251 256 258 265 270 274 283 284 294 292 315 327 322 322 331 331 336 327 327 283
249 249 250 249 249 251 252 252 251 248 247 247 248 251 250 248 248 246 248 249 246 245 250 251 248 248 251 257 263 268 272 278 285 290 283 310 319 317 320 321 323 329 329 332 321
248 249 249 250 249 250 251 251 250 250 249 249 248 248 251 250 252 249 245 240 242 243 242 246 246 242 243 251 256 264 270 274 281 281 284 301 304 313 312 317 317 325 330 330 323
249 247 248 250 252 252 250 248 248 247 247 245 246 246 246 246 247 246 241 239 237 239 239 245 245 243 245 250 257 263 264 264 271 278 291 298 294 309 312 302 313 318 319 324 318
249 248 249 251 252 252 251 250 249 248 245 245 244 244 244 245 245 241 237 235 234 237 236 239 241 242 247 250 252 252 257 261 268 278 285 289 289 302 308 306 308 309 316 322 321
251 249 248 248 250 249 246 245 246 245 246 243 242 243 244 241 240 239 239 233 233 235 234 237 241 241 238 242 250 253 255 258 266 276 279 276 291 299 296 309 298 304 313 324 323
254 252 249 247 245 246 243 244 246 248 245 243 241 241 240 240 240 236 234 231 229 235 232 234 236 241 239 237 246 249 253 256 262 269 273 276 281 278 291 303 291 303 310 316 315
257 255 251 243 239 239 238 240 239 240 241 239 236 240 242 245 240 235 232 230 228 230 233 233 235 234 237 242 244 244 250 258 262 266 269 280 278 281 292 289 285 295 297 309 314